Location: Newark
(11.6000°N, 43.1667°E)
Time: 05:00:33
(UTC+00:00)

LightSail 2 - Pass Details

Date: 21 September 2019
Orbit: 707 x 722 km, 24.0° (Epoch: 22 October)

Event Time Altitude Azimuth Distance (km) Brightness Sun altitude
Exits shadow 01:24:36 35° 334° (NNW) 1,127 6.0 -23.3°
Maximum altitude 01:25:00 35° 344° (NNW) 1,115 6.0 -23.2°
Drops below altitude 10° 01:29:39 10° 50° (NE) 2,159 8.4 -22.1°
Sets 01:32:16 0° 59° (ENE) 3,078 9.5 -21.4°
